Regional Weather Roundup
Issued by NWS

Home | Current Version | Previous Version | Graphics & Text | Print | Product List | Glossary On
Versions: 1 2 3 4 5 6 7 8 9 10 11 12 13 14 15 16 17 18 19 20 21 22 23 24 25 26 27 28 29 30 31 32 33 34 35 36 37 38 39 40 41 42 43 44 45 46 47 48 49 50
000
ASUS43 KDTX 291910
RWRMI
MICHIGAN HOURLY REGIONAL WEATHER ROUNDUP
NATIONAL WEATHER SERVICE DETROIT/PONTIAC MI
300 PM EDT WED JUL 29 2015

NOTE: "FAIR" INDICATES FEW OR NO CLOUDS BELOW 12,000 FEET WITH NO
SIGNIFICANT WEATHER AND/OR OBSTRUCTION TO VISIBILITY.

MIZ047>049-052>055-059>063-066>070-074>076-081>083-292000-
SOUTHEAST LOWER MICHIGAN

CITY           SKY/WX    TMP DP  RH WIND       PRES   REMARKS
ADRIAN         LGT RAIN  79  75  87 W6        29.93F FOG
ALMA           PTSUNNY   86  74  68 SW10      29.88F HX  94
ANN ARBOR      PTSUNNY   86  72  62 SW9       29.89F HX  92
BAD AXE        PTSUNNY   85  72  64 S8        29.86F HX  91
CARO           RAIN      83  74  73 SW8       29.85S HX  90
DETROIT CITY   PTSUNNY   88  71  57 S12G23    29.87F HX  94
DETROIT        PTSUNNY   90  74  59 SE15      29.88F HX  99
FLINT          TSTM      81  75  82 SW18G24   29.89S
GROSSE ILE     PTSUNNY   86  75  70 SE9       29.88F HX  95
HILLSDALE      LGT RAIN  81  78  90 W9G22     29.94S HX  90
HOWELL         CLOUDY    87  73  63 W15G21    29.89F HX  93

CITY           SKY/WX    TMP DP  RH WIND       PRES   REMARKS
JACKSON        CLOUDY    82  76  81 W10       29.91F
LAMBERTVILLE   PTSUNNY   89  71  55 SW6       29.91F HX  95
LANSING        CLOUDY    86  72  62 W14       29.89F HX  92
LAPEER         PTSUNNY   87  69  54 SW10      29.87F HX  91
MASON          CLOUDY    78  74  86 W5        29.91F
MONROE         PTSUNNY   89  74  61 S7        29.88F HX  98
MT. CLEMENS    PTSUNNY   89  72  57 SE16G22   29.86F HX  96
PONTIAC        PTSUNNY   90  71  53 SW10      29.87F HX  96
PORT HOPE        N/A     89  72  56 S9        29.83F HX  96
PORT HURON     MOSUNNY   88  72  58 S14       29.88F HX  94
TRI CITIES     CLOUDY    87  75  67 W14       29.86F HX  96
MIDLAND        FAIR      85  74  69 SW5       29.84F HX  93
TROY           PTSUNNY   92  69  46 S10G16    29.88F HX  97
SAGINAW HB     CLOUDY    77  73  88 S6        29.86F
$$
MIZ043>046-050>051-056>058-064>065-071>073-077>080-292000-
SOUTHWEST LOWER MICHIGAN

CITY           SKY/WX    TMP DP  RH WIND       PRES   REMARKS
BATTLE CREEK   PTSUNNY   86  72  62 W14G21    29.94F HX  92
BENTON HARBOR  PTSUNNY   82  67  60 W12       29.97F
BIG RAPIDS     MOSUNNY   83  54  37 W12       29.91S
COLDWATER      CLOUDY    84  73  67 W13       29.93F HX  90
FREMONT        FAIR      84  57  39 W10       29.92F
HOLLAND        PTSUNNY   82  64  54 NW14G22   29.96S
GRAND RAPIDS   PTSUNNY   85  69  58 W14       29.92F
IONIA          FAIR      86  73  65 W15       29.89F HX  93
KALAMAZOO      PTSUNNY   82  71  69 W12       29.95F
LUDINGTON      MOSUNNY   78  63  58 SW12      29.92S
MARSHALL       CLOUDY    84  74  71 W13       29.92F HX  91
MOUNT PLEASANT CLOUDY    88  71  55 W12G22    29.85F HX  94
MUSKEGON       PTSUNNY   82  61  48 W13       29.94S
SOUTH HAVEN    PTSUNNY   80  67  63 W12G17    29.97S
$$
MIZ016>042-292000-
NORTHERN LOWER MICHIGAN

CITY           SKY/WX    TMP DP  RH WIND       PRES   REMARKS
ALPENA         PTSUNNY   88  71  57 SW10G25   29.80F HX  94
BEAVER ISLAND  SUNNY     79  55  43 SW23G30   29.81R
BELLAIRE       SUNNY     84  51  31 SW10G18   29.83F
CADILLAC       MOSUNNY   84  54  35 SW14G20   29.90S
CHARLEVOIX     SUNNY     83  53  35 SW18G25   29.85S
FRANKFORT      SUNNY     80  60  50 SW14G22   29.88R
GAYLORD        MOSUNNY   84  51  31 W16G24    29.86F
GRAYLING       PTSUNNY   85  60  42 W13       29.87S
HARBOR SPRINGS SUNNY     82  56  41 W7        29.81F
HOUGHTON LAKE  PTSUNNY   84  61  45 W16G22    29.88S
MANISTEE       SUNNY     81  54  39 SW10G23   29.89F
OSCODA         CLOUDY    83  71  67 S9        29.82F
PELLSTON       SUNNY     85  51  31 SW16G22   29.80F
ROGERS CITY    CLOUDY    82  72  72 W12G17    29.80F
TRAVERSE CITY  MOSUNNY   87  51  28 W13G21    29.83F
$$
MIZ007>008-015-292000-
EASTERN UPPER MICHIGAN

CITY           SKY/WX    TMP DP  RH WIND       PRES   REMARKS
KINROSS        SUNNY     82  52  34 SW16G28   29.77S
MACKINAC ISLAN MOSUNNY   78  56  46 SW17G28   29.80S
MUNISING         N/A     86  53  32 W10G18    29.73R
$$
MIZ004>006-011>014-085-292000-
CENTRAL UPPER MICHIGAN

CITY           SKY/WX    TMP DP  RH WIND       PRES   REMARKS
MANISTIQUE     SUNNY     77  61  57 S17       29.76F
ESCANABA       SUNNY     84  52  32 SW17G30   29.75S
MENOMINEE      SUNNY     82  52  34 W14G24    29.80S
SAWYER-GWINN   MOSUNNY   81  50  34 W20G30    29.77R
$$
MIZ001>003-009>011-084-292000-
WESTERN UPPER MICHIGAN

CITY           SKY/WX    TMP DP  RH WIND       PRES   REMARKS
IRON MOUNTAIN  MOSUNNY   84  53  34 SW14G25   29.78S
HOUGHTON       CLOUDY    72  52  49 W30G43    29.73R
IRONWOOD       CLOUDY    72  54  53 W24G35    29.78R
$$

ABBREVIATIONS USED IN REMARKS
   TC - TEMPERATURE IN CELSIUS
  WCI - WIND CHILL INDEX
   HX - HEAT INDEX
  VSB - VISIBILITY



USA.gov is the U.S. government's official web portal to all federal, state and local government web resources and services.